Year,Month,Day,Hour,Minute,Value (Times are PST for temperature in C)
2018,05,17,00,00,13.50
2018,05,17,00,01,13.50
2018,05,17,00,02,13.50
2018,05,17,00,03,13.50
2018,05,17,00,04,13.50
2018,05,17,00,05,13.50
2018,05,17,00,06,13.40
2018,05,17,00,07,13.40
2018,05,17,00,08,13.40
2018,05,17,00,09,13.30
2018,05,17,00,10,13.30
2018,05,17,00,11,13.30
2018,05,17,00,12,13.20
2018,05,17,00,13,13.20
2018,05,17,00,14,13.20
2018,05,17,00,15,13.20
2018,05,17,00,16,13.10
2018,05,17,00,17,13.10
2018,05,17,00,18,13.10
2018,05,17,00,19,13.10
2018,05,17,00,20,13.10
2018,05,17,00,21,13.10
2018,05,17,00,22,13.10
2018,05,17,00,23,13.00
2018,05,17,00,24,13.00
2018,05,17,00,25,13.00
2018,05,17,00,26,12.90
2018,05,17,00,27,12.90
2018,05,17,00,28,12.80
2018,05,17,00,29,12.80
2018,05,17,00,30,12.80
2018,05,17,00,31,12.80
2018,05,17,00,32,12.70
2018,05,17,00,33,12.70
2018,05,17,00,34,12.70
2018,05,17,00,35,12.70
2018,05,17,00,36,12.70
2018,05,17,00,37,12.70
2018,05,17,00,38,12.70
2018,05,17,00,39,12.70
2018,05,17,00,40,12.60
2018,05,17,00,41,12.60
2018,05,17,00,42,12.60
2018,05,17,00,43,12.60
2018,05,17,00,44,12.60
2018,05,17,00,45,12.60
2018,05,17,00,46,12.60
2018,05,17,00,47,12.50
2018,05,17,00,48,12.50
2018,05,17,00,49,12.50
2018,05,17,00,50,12.50
2018,05,17,00,51,12.40
2018,05,17,00,52,12.40
2018,05,17,00,53,12.40
2018,05,17,00,54,12.40
2018,05,17,00,55,12.40
2018,05,17,00,56,12.30
2018,05,17,00,57,12.30
2018,05,17,00,58,12.30
2018,05,17,00,59,12.30
2018,05,17,01,00,12.30
2018,05,17,01,01,12.30
2018,05,17,01,02,12.30
2018,05,17,01,03,12.30
2018,05,17,01,04,12.30
2018,05,17,01,05,12.30
2018,05,17,01,06,12.30
2018,05,17,01,07,12.30
2018,05,17,01,08,12.30
2018,05,17,01,09,12.30
2018,05,17,01,10,12.30
2018,05,17,01,11,12.30
2018,05,17,01,12,12.30
2018,05,17,01,13,12.20
2018,05,17,01,14,12.20
2018,05,17,01,15,12.20
2018,05,17,01,16,12.20
2018,05,17,01,17,12.20
2018,05,17,01,18,12.20
2018,05,17,01,19,12.20
2018,05,17,01,20,12.10
2018,05,17,01,21,12.10
2018,05,17,01,22,12.10
2018,05,17,01,23,12.10
2018,05,17,01,24,12.10
2018,05,17,01,25,12.00
2018,05,17,01,26,12.00
2018,05,17,01,27,12.00
2018,05,17,01,28,12.00
2018,05,17,01,29,12.00
2018,05,17,01,30,12.00
2018,05,17,01,31,12.00
2018,05,17,01,32,12.00
2018,05,17,01,33,12.00
2018,05,17,01,34,12.00
2018,05,17,01,35,12.00
2018,05,17,01,36,12.00
2018,05,17,01,37,11.90
2018,05,17,01,38,11.90
2018,05,17,01,39,11.90
2018,05,17,01,40,11.90
2018,05,17,01,41,11.90
2018,05,17,01,42,11.90
2018,05,17,01,43,11.90
2018,05,17,01,44,11.80
2018,05,17,01,45,11.80
2018,05,17,01,46,11.80
2018,05,17,01,47,11.80
2018,05,17,01,48,11.80
2018,05,17,01,49,11.80
2018,05,17,01,50,11.70
2018,05,17,01,51,11.70
2018,05,17,01,52,11.70
2018,05,17,01,53,11.70
2018,05,17,01,54,11.70
2018,05,17,01,55,11.70
2018,05,17,01,56,11.70
2018,05,17,01,57,11.60
2018,05,17,01,58,11.60
2018,05,17,01,59,11.50
2018,05,17,02,00,11.50
2018,05,17,02,01,11.50
2018,05,17,02,02,11.40
2018,05,17,02,03,11.40
2018,05,17,02,04,11.30
2018,05,17,02,05,11.30
2018,05,17,02,06,11.30
2018,05,17,02,07,11.30
2018,05,17,02,08,11.30
2018,05,17,02,09,11.30
2018,05,17,02,10,11.20
2018,05,17,02,11,11.20
2018,05,17,02,12,11.20
2018,05,17,02,13,11.20
2018,05,17,02,14,11.20
2018,05,17,02,15,11.10
2018,05,17,02,16,11.10
2018,05,17,02,17,11.10
2018,05,17,02,18,11.10
2018,05,17,02,19,11.10
2018,05,17,02,20,11.10
2018,05,17,02,21,11.10
2018,05,17,02,22,11.10
2018,05,17,02,23,11.10
2018,05,17,02,24,11.00
2018,05,17,02,25,11.00
2018,05,17,02,26,10.90
2018,05,17,02,27,10.90
2018,05,17,02,28,10.90
2018,05,17,02,29,10.90
2018,05,17,02,30,10.80
2018,05,17,02,31,10.80
2018,05,17,02,32,10.80
2018,05,17,02,33,10.80
2018,05,17,02,34,10.70
2018,05,17,02,35,10.70
2018,05,17,02,36,10.70
2018,05,17,02,37,10.70
2018,05,17,02,38,10.60
2018,05,17,02,39,10.60
2018,05,17,02,40,10.60
2018,05,17,02,41,10.60
2018,05,17,02,42,10.60
2018,05,17,02,43,10.60
2018,05,17,02,44,10.50
2018,05,17,02,45,10.50
2018,05,17,02,46,10.50
2018,05,17,02,47,10.40
2018,05,17,02,48,10.40
2018,05,17,02,49,10.40
2018,05,17,02,50,10.40
2018,05,17,02,51,10.30
2018,05,17,02,52,10.30
2018,05,17,02,53,10.30
2018,05,17,02,54,10.30
2018,05,17,02,55,10.20
2018,05,17,02,56,10.20
2018,05,17,02,57,10.20
2018,05,17,02,58,10.20
2018,05,17,02,59,10.20
2018,05,17,03,00,10.20
2018,05,17,03,01,10.20
2018,05,17,03,02,10.20
2018,05,17,03,03,10.10
2018,05,17,03,04,10.10
2018,05,17,03,05,10.10
2018,05,17,03,06,10.10
2018,05,17,03,07,10.10
2018,05,17,03,08,10.10
2018,05,17,03,09,10.10
2018,05,17,03,10,10.00
2018,05,17,03,11,10.00
2018,05,17,03,12,10.00
2018,05,17,03,13,9.90
2018,05,17,03,14,9.90
2018,05,17,03,15,9.90
2018,05,17,03,16,9.90
2018,05,17,03,17,9.80
2018,05,17,03,18,9.80
2018,05,17,03,19,9.80
2018,05,17,03,20,9.80
2018,05,17,03,21,9.80
2018,05,17,03,22,9.80
2018,05,17,03,23,9.80
2018,05,17,03,24,9.80
2018,05,17,03,25,9.80
2018,05,17,03,26,9.80
2018,05,17,03,27,9.70
2018,05,17,03,28,9.70
2018,05,17,03,29,9.70
2018,05,17,03,30,9.70
2018,05,17,03,31,9.70
2018,05,17,03,32,9.70
2018,05,17,03,33,9.70
2018,05,17,03,34,9.70
2018,05,17,03,35,9.60
2018,05,17,03,36,9.60
2018,05,17,03,37,9.60
2018,05,17,03,38,9.60
2018,05,17,03,39,9.60
2018,05,17,03,40,9.60
2018,05,17,03,41,9.50
2018,05,17,03,42,9.50
2018,05,17,03,43,9.50
2018,05,17,03,44,9.40
2018,05,17,03,45,9.40
2018,05,17,03,46,9.40
2018,05,17,03,47,9.40
2018,05,17,03,48,9.40
2018,05,17,03,49,9.40
2018,05,17,03,50,9.30
2018,05,17,03,51,9.30
2018,05,17,03,52,9.30
2018,05,17,03,53,9.30
2018,05,17,03,54,9.30
2018,05,17,03,55,9.30
2018,05,17,03,56,9.30
2018,05,17,03,57,9.30
2018,05,17,03,58,9.20
2018,05,17,03,59,9.20
2018,05,17,04,00,9.20
2018,05,17,04,01,9.20
2018,05,17,04,02,9.20
2018,05,17,04,03,9.10
2018,05,17,04,04,9.10
2018,05,17,04,05,9.10
2018,05,17,04,06,9.10
2018,05,17,04,07,9.10
2018,05,17,04,08,9.00
2018,05,17,04,09,9.00
2018,05,17,04,10,9.00
2018,05,17,04,11,9.00
2018,05,17,04,12,9.00
2018,05,17,04,13,9.00
2018,05,17,04,14,9.00
2018,05,17,04,15,8.90
2018,05,17,04,16,8.90
2018,05,17,04,17,8.90
2018,05,17,04,18,8.90
2018,05,17,04,19,8.90
2018,05,17,04,20,8.90
2018,05,17,04,21,8.90
2018,05,17,04,22,8.90
2018,05,17,04,23,8.90
2018,05,17,04,24,8.90
2018,05,17,04,25,8.80
2018,05,17,04,26,8.80
2018,05,17,04,27,8.80
2018,05,17,04,28,8.80
2018,05,17,04,29,8.80
2018,05,17,04,30,8.80
2018,05,17,04,31,8.80
2018,05,17,04,32,8.80
2018,05,17,04,33,8.80
2018,05,17,04,34,8.80
2018,05,17,04,35,8.80
2018,05,17,04,36,8.80
2018,05,17,04,37,8.80
2018,05,17,04,38,8.80
2018,05,17,04,39,8.70
2018,05,17,04,40,8.70
2018,05,17,04,41,8.70
2018,05,17,04,42,8.70
2018,05,17,04,43,8.70
2018,05,17,04,44,8.70
2018,05,17,04,45,8.70
2018,05,17,04,46,8.70
2018,05,17,04,47,8.70
2018,05,17,04,48,8.70
2018,05,17,04,49,8.70
2018,05,17,04,50,8.70
2018,05,17,04,51,8.70
2018,05,17,04,52,8.70
2018,05,17,04,53,8.60
2018,05,17,04,54,8.60
2018,05,17,04,55,8.60
2018,05,17,04,56,8.60
2018,05,17,04,57,8.60
2018,05,17,04,58,8.50
2018,05,17,04,59,8.50
2018,05,17,05,00,8.50
2018,05,17,05,01,8.40
2018,05,17,05,02,8.40
2018,05,17,05,03,8.40
2018,05,17,05,04,8.30
2018,05,17,05,05,8.30
2018,05,17,05,06,8.30
2018,05,17,05,07,8.30
2018,05,17,05,08,8.30
2018,05,17,05,09,8.30
2018,05,17,05,10,8.30
2018,05,17,05,11,8.20
2018,05,17,05,12,8.20
2018,05,17,05,13,8.20
2018,05,17,05,14,8.20
2018,05,17,05,15,8.10
2018,05,17,05,16,8.10
2018,05,17,05,17,8.10
2018,05,17,05,18,8.00
2018,05,17,05,19,8.00
2018,05,17,05,20,8.00
2018,05,17,05,21,7.90
2018,05,17,05,22,7.90
2018,05,17,05,23,7.90
2018,05,17,05,24,7.90
2018,05,17,05,25,7.90
2018,05,17,05,26,7.90
2018,05,17,05,27,7.80
2018,05,17,05,28,7.80
2018,05,17,05,29,7.80
2018,05,17,05,30,7.80
2018,05,17,05,31,7.80
2018,05,17,05,32,7.80
2018,05,17,05,33,7.80
2018,05,17,05,34,7.80
2018,05,17,05,35,7.80
2018,05,17,05,36,7.80
2018,05,17,05,37,7.80
2018,05,17,05,38,7.80
2018,05,17,05,39,7.80
2018,05,17,05,40,7.70
2018,05,17,05,41,7.70
2018,05,17,05,42,7.70
2018,05,17,05,43,7.70
2018,05,17,05,44,7.70
2018,05,17,05,45,7.70
2018,05,17,05,46,7.70
2018,05,17,05,47,7.70
2018,05,17,05,48,7.70
2018,05,17,05,49,7.70
2018,05,17,05,50,7.70
2018,05,17,05,51,7.70
2018,05,17,05,52,7.70
2018,05,17,05,53,7.70
2018,05,17,05,54,7.70
2018,05,17,05,55,7.60
2018,05,17,05,56,7.60
2018,05,17,05,57,7.70
2018,05,17,05,58,7.70
2018,05,17,05,59,7.70
2018,05,17,06,00,7.70
2018,05,17,06,01,7.70
2018,05,17,06,02,7.60
2018,05,17,06,03,7.60
2018,05,17,06,04,7.60
2018,05,17,06,05,7.60
2018,05,17,06,06,7.60
2018,05,17,06,07,7.60
2018,05,17,06,08,7.60
2018,05,17,06,09,7.70
2018,05,17,06,10,7.70
2018,05,17,06,11,7.70
2018,05,17,06,12,7.70
2018,05,17,06,13,7.70
2018,05,17,06,14,7.70
2018,05,17,06,15,7.70
2018,05,17,06,16,7.80
2018,05,17,06,17,7.80
2018,05,17,06,18,7.80
2018,05,17,06,19,7.80
2018,05,17,06,20,7.80
2018,05,17,06,21,7.80
2018,05,17,06,22,7.80
2018,05,17,06,23,7.80
2018,05,17,06,24,7.90
2018,05,17,06,25,7.90
2018,05,17,06,26,7.90
2018,05,17,06,27,7.90
2018,05,17,06,28,7.90
2018,05,17,06,29,7.90
2018,05,17,06,30,7.90
2018,05,17,06,31,7.90
2018,05,17,06,32,8.00
2018,05,17,06,33,8.00
2018,05,17,06,34,8.00
2018,05,17,06,35,8.00
2018,05,17,06,36,8.10
2018,05,17,06,37,8.10
2018,05,17,06,38,8.10
2018,05,17,06,39,8.10
2018,05,17,06,40,8.10
2018,05,17,06,41,8.10
2018,05,17,06,42,8.20
2018,05,17,06,43,8.20
2018,05,17,06,44,8.20
2018,05,17,06,45,8.30
2018,05,17,06,46,8.30
2018,05,17,06,47,8.30
2018,05,17,06,48,8.30
2018,05,17,06,49,8.30
2018,05,17,06,50,8.40
2018,05,17,06,51,8.40
2018,05,17,06,52,8.40
2018,05,17,06,53,8.40
2018,05,17,06,54,8.50
2018,05,17,06,55,8.50
2018,05,17,06,56,8.50
2018,05,17,06,57,8.60
2018,05,17,06,58,8.60
2018,05,17,06,59,8.60
2018,05,17,07,00,8.70
2018,05,17,07,01,8.70
2018,05,17,07,02,8.80
2018,05,17,07,03,8.90
2018,05,17,07,04,8.90
2018,05,17,07,05,9.00
2018,05,17,07,06,9.10
2018,05,17,07,07,9.10
2018,05,17,07,08,9.20
2018,05,17,07,09,9.20
2018,05,17,07,10,9.30
2018,05,17,07,11,9.30
2018,05,17,07,12,9.40
2018,05,17,07,13,9.40
2018,05,17,07,14,9.40
2018,05,17,07,15,9.50
2018,05,17,07,16,9.50
2018,05,17,07,17,9.60
2018,05,17,07,18,9.60
2018,05,17,07,19,9.70
2018,05,17,07,20,9.70
2018,05,17,07,21,9.80
2018,05,17,07,22,9.80
2018,05,17,07,23,9.90
2018,05,17,07,24,10.00
2018,05,17,07,25,10.10
2018,05,17,07,26,10.20
2018,05,17,07,27,10.20
2018,05,17,07,28,10.30
2018,05,17,07,29,10.30
2018,05,17,07,30,10.40
2018,05,17,07,31,10.40
2018,05,17,07,32,10.50
2018,05,17,07,33,10.60
2018,05,17,07,34,10.70
2018,05,17,07,35,10.70
2018,05,17,07,36,10.70
2018,05,17,07,37,10.80
2018,05,17,07,38,10.90
2018,05,17,07,39,10.90
2018,05,17,07,40,11.00
2018,05,17,07,41,11.00
2018,05,17,07,42,11.10
2018,05,17,07,43,11.10
2018,05,17,07,44,11.20
2018,05,17,07,45,11.20
2018,05,17,07,46,11.30
2018,05,17,07,47,11.40
2018,05,17,07,48,11.40
2018,05,17,07,49,11.50
2018,05,17,07,50,11.50
2018,05,17,07,51,11.60
2018,05,17,07,52,11.70
2018,05,17,07,53,11.70
2018,05,17,07,54,11.80
2018,05,17,07,55,11.90
2018,05,17,07,56,11.90
2018,05,17,07,57,12.00
2018,05,17,07,58,12.00
2018,05,17,07,59,12.10
2018,05,17,08,00,12.10
2018,05,17,08,01,12.20
2018,05,17,08,02,12.30
2018,05,17,08,03,12.30
2018,05,17,08,04,12.30
2018,05,17,08,05,12.40
2018,05,17,08,06,12.40
2018,05,17,08,07,12.40
2018,05,17,08,08,12.50
2018,05,17,08,09,12.50
2018,05,17,08,10,12.60
2018,05,17,08,11,12.60
2018,05,17,08,12,12.70
2018,05,17,08,13,12.70
2018,05,17,08,14,12.80
2018,05,17,08,15,12.80
2018,05,17,08,16,12.80
2018,05,17,08,17,12.80
2018,05,17,08,18,12.80
2018,05,17,08,19,12.80
2018,05,17,08,20,12.80
2018,05,17,08,21,12.80
2018,05,17,08,22,12.90
2018,05,17,08,23,12.90
2018,05,17,08,24,12.90
2018,05,17,08,25,12.90
2018,05,17,08,26,12.90
2018,05,17,08,27,13.00
2018,05,17,08,28,13.00
2018,05,17,08,29,13.00
2018,05,17,08,30,13.00
2018,05,17,08,31,13.00
2018,05,17,08,32,13.10
2018,05,17,08,33,13.10
2018,05,17,08,34,13.20
2018,05,17,08,35,13.20
2018,05,17,08,36,13.20
2018,05,17,08,37,13.30
2018,05,17,08,38,13.30
2018,05,17,08,39,13.30
2018,05,17,08,40,13.40
2018,05,17,08,41,13.40
2018,05,17,08,42,13.40
2018,05,17,08,43,13.40
2018,05,17,08,44,13.50
2018,05,17,08,45,13.50
2018,05,17,08,46,13.60
2018,05,17,08,47,13.60
2018,05,17,08,48,13.60
2018,05,17,08,49,13.60
2018,05,17,08,50,13.60
2018,05,17,08,51,13.70
2018,05,17,08,52,13.70
2018,05,17,08,53,13.80
2018,05,17,08,54,13.80
2018,05,17,08,55,13.80
2018,05,17,08,56,13.90
2018,05,17,08,57,13.90
2018,05,17,08,58,14.00
2018,05,17,08,59,14.10
2018,05,17,09,00,14.10
2018,05,17,09,01,14.20
2018,05,17,09,02,14.30
2018,05,17,09,03,14.30
2018,05,17,09,04,14.40
2018,05,17,09,05,14.40
2018,05,17,09,06,14.40
2018,05,17,09,07,14.50
2018,05,17,09,08,14.60
2018,05,17,09,09,14.60
2018,05,17,09,10,14.70
2018,05,17,09,11,14.70
2018,05,17,09,12,14.80
2018,05,17,09,13,14.80
2018,05,17,09,14,14.80
2018,05,17,09,15,14.90
2018,05,17,09,16,15.00
2018,05,17,09,17,15.10
2018,05,17,09,18,15.20
2018,05,17,09,19,15.20
2018,05,17,09,20,15.30
2018,05,17,09,21,15.30
2018,05,17,09,22,15.40
2018,05,17,09,23,15.40
2018,05,17,09,24,15.40
2018,05,17,09,25,15.30
2018,05,17,09,26,15.30
2018,05,17,09,27,15.30
2018,05,17,09,28,15.30
2018,05,17,09,29,15.30
2018,05,17,09,30,15.30
2018,05,17,09,31,15.30
2018,05,17,09,32,15.30
2018,05,17,09,33,15.30
2018,05,17,09,34,15.40
2018,05,17,09,35,15.40
2018,05,17,09,36,15.40
2018,05,17,09,37,15.50
2018,05,17,09,38,15.50
2018,05,17,09,39,15.50
2018,05,17,09,40,15.60
2018,05,17,09,41,15.60
2018,05,17,09,42,15.60
2018,05,17,09,43,15.60
2018,05,17,09,44,15.70
2018,05,17,09,45,15.70
2018,05,17,09,46,15.70
2018,05,17,09,47,15.80
2018,05,17,09,48,15.80
2018,05,17,09,49,15.90
2018,05,17,09,50,15.90
2018,05,17,09,51,15.90
2018,05,17,09,52,15.90
2018,05,17,09,53,15.90
2018,05,17,09,54,15.90
2018,05,17,09,55,15.90
2018,05,17,09,56,15.90
2018,05,17,09,57,16.00
2018,05,17,09,58,15.90
2018,05,17,09,59,15.90
2018,05,17,10,00,15.90
2018,05,17,10,01,15.90
2018,05,17,10,02,15.90
2018,05,17,10,03,15.90
2018,05,17,10,04,16.00
2018,05,17,10,05,16.00
2018,05,17,10,06,16.00
2018,05,17,10,07,16.10
2018,05,17,10,08,16.20
2018,05,17,10,09,16.20
2018,05,17,10,10,16.30
2018,05,17,10,11,16.40
2018,05,17,10,12,16.40
2018,05,17,10,13,16.40
2018,05,17,10,14,16.40
2018,05,17,10,15,16.40
2018,05,17,10,16,16.40
2018,05,17,10,17,16.40
2018,05,17,10,18,16.30
2018,05,17,10,19,16.30
2018,05,17,10,20,16.30
2018,05,17,10,21,16.40
2018,05,17,10,22,16.50
2018,05,17,10,23,16.50
2018,05,17,10,24,16.60
2018,05,17,10,25,16.70
2018,05,17,10,26,16.80
2018,05,17,10,27,16.80
2018,05,17,10,28,16.80
2018,05,17,10,29,16.90
2018,05,17,10,30,16.90
2018,05,17,10,31,16.90
2018,05,17,10,32,16.90
2018,05,17,10,33,16.90
2018,05,17,10,34,16.90
2018,05,17,10,35,17.00
2018,05,17,10,36,17.00
2018,05,17,10,37,17.00
2018,05,17,10,38,17.00
2018,05,17,10,39,17.00
2018,05,17,10,40,17.00
2018,05,17,10,41,17.00
2018,05,17,10,42,17.10
2018,05,17,10,43,17.20
2018,05,17,10,44,17.20
2018,05,17,10,45,17.20
2018,05,17,10,46,17.30
2018,05,17,10,47,17.30
2018,05,17,10,48,17.40
2018,05,17,10,49,17.40
2018,05,17,10,50,17.50
2018,05,17,10,51,17.50
2018,05,17,10,52,17.50
2018,05,17,10,53,17.50
2018,05,17,10,54,17.60
2018,05,17,10,55,17.60
2018,05,17,10,56,17.50
2018,05,17,10,57,17.50
2018,05,17,10,58,17.50
2018,05,17,10,59,17.50
2018,05,17,11,00,17.50
2018,05,17,11,01,17.50
2018,05,17,11,02,17.60
2018,05,17,11,03,17.60
2018,05,17,11,04,17.60
2018,05,17,11,05,17.50
2018,05,17,11,06,17.50
2018,05,17,11,07,17.60
2018,05,17,11,08,17.60
2018,05,17,11,09,17.60
2018,05,17,11,10,17.60
2018,05,17,11,11,17.60
2018,05,17,11,12,17.70
2018,05,17,11,13,17.70
2018,05,17,11,14,17.70
2018,05,17,11,15,17.70
2018,05,17,11,16,17.70
2018,05,17,11,17,17.80
2018,05,17,11,18,17.80
2018,05,17,11,19,17.80
2018,05,17,11,20,17.80
2018,05,17,11,21,17.80
2018,05,17,11,22,17.80
2018,05,17,11,23,17.80
2018,05,17,11,24,17.80
2018,05,17,11,25,17.80
2018,05,17,11,26,17.80
2018,05,17,11,27,17.70
2018,05,17,11,28,17.70
2018,05,17,11,29,17.70
2018,05,17,11,30,17.80
2018,05,17,11,31,17.80
2018,05,17,11,32,17.80
2018,05,17,11,33,17.80
2018,05,17,11,34,17.80
2018,05,17,11,35,17.80
2018,05,17,11,36,17.80
2018,05,17,11,37,17.80
2018,05,17,11,38,17.80
2018,05,17,11,39,17.70
2018,05,17,11,40,17.60
2018,05,17,11,41,17.50
2018,05,17,11,42,17.40
2018,05,17,11,43,17.30
2018,05,17,11,44,17.20
2018,05,17,11,45,17.20
2018,05,17,11,46,17.20
2018,05,17,11,47,17.30
2018,05,17,11,48,17.40
2018,05,17,11,49,17.50
2018,05,17,11,50,17.60
2018,05,17,11,51,17.60
2018,05,17,11,52,17.60
2018,05,17,11,53,17.60
2018,05,17,11,54,17.60
2018,05,17,11,55,17.70
2018,05,17,11,56,17.70
2018,05,17,11,57,17.70
2018,05,17,11,58,17.70
2018,05,17,11,59,17.80
2018,05,17,12,00,17.80
2018,05,17,12,01,17.90
2018,05,17,12,02,17.90
2018,05,17,12,03,17.90
2018,05,17,12,04,17.90
2018,05,17,12,05,18.00
2018,05,17,12,06,18.00
2018,05,17,12,07,18.10
2018,05,17,12,08,18.10
2018,05,17,12,09,18.20
2018,05,17,12,10,18.30
2018,05,17,12,11,18.30
2018,05,17,12,12,18.30
2018,05,17,12,13,18.30
2018,05,17,12,14,18.40
2018,05,17,12,15,18.40
2018,05,17,12,16,18.50
2018,05,17,12,17,18.50
2018,05,17,12,18,18.60
2018,05,17,12,19,18.60
2018,05,17,12,20,18.60
2018,05,17,12,21,18.60
2018,05,17,12,22,18.60
2018,05,17,12,23,18.50
2018,05,17,12,24,18.40
2018,05,17,12,25,18.40
2018,05,17,12,26,18.30
2018,05,17,12,27,18.30
2018,05,17,12,28,18.40
2018,05,17,12,29,18.40
2018,05,17,12,30,18.50
2018,05,17,12,31,18.50
2018,05,17,12,32,18.50
2018,05,17,12,33,18.50
2018,05,17,12,34,18.50
2018,05,17,12,35,18.50
2018,05,17,12,36,18.50
2018,05,17,12,37,18.50
2018,05,17,12,38,18.50
2018,05,17,12,39,18.50
2018,05,17,12,40,18.50
2018,05,17,12,41,18.60
2018,05,17,12,42,18.60
2018,05,17,12,43,18.60
2018,05,17,12,44,18.50
2018,05,17,12,45,18.50
2018,05,17,12,46,18.50
2018,05,17,12,47,18.50
2018,05,17,12,48,18.50
2018,05,17,12,49,18.60
2018,05,17,12,50,18.70
2018,05,17,12,51,18.70
2018,05,17,12,52,18.80
2018,05,17,12,53,18.80
2018,05,17,12,54,18.80
2018,05,17,12,55,18.80
2018,05,17,12,56,18.80
2018,05,17,12,57,18.90
2018,05,17,12,58,18.90
2018,05,17,12,59,18.90
2018,05,17,13,00,18.90
2018,05,17,13,01,18.90
2018,05,17,13,02,18.90
2018,05,17,13,03,18.90
2018,05,17,13,04,18.90
2018,05,17,13,05,18.90
2018,05,17,13,06,18.90
2018,05,17,13,07,18.90
2018,05,17,13,08,18.90
2018,05,17,13,09,18.90
2018,05,17,13,10,19.00
2018,05,17,13,11,19.10
2018,05,17,13,12,19.10
2018,05,17,13,13,19.10
2018,05,17,13,14,19.20
2018,05,17,13,15,19.20
2018,05,17,13,16,19.20
2018,05,17,13,17,19.30
2018,05,17,13,18,19.30
2018,05,17,13,19,19.40
2018,05,17,13,20,19.40
2018,05,17,13,21,19.40
2018,05,17,13,22,19.50
2018,05,17,13,23,19.50
2018,05,17,13,24,19.60
2018,05,17,13,25,19.70
2018,05,17,13,26,19.70
2018,05,17,13,27,19.80
2018,05,17,13,28,19.90
2018,05,17,13,29,19.90
2018,05,17,13,30,19.80
2018,05,17,13,31,19.80
2018,05,17,13,32,19.80
2018,05,17,13,33,19.80
2018,05,17,13,34,19.80
2018,05,17,13,35,19.90
2018,05,17,13,36,19.90
2018,05,17,13,37,19.90
2018,05,17,13,38,19.90
2018,05,17,13,39,19.90
2018,05,17,13,40,19.90
2018,05,17,13,41,19.90
2018,05,17,13,42,19.90
2018,05,17,13,43,19.90
2018,05,17,13,44,19.90
2018,05,17,13,45,19.80
2018,05,17,13,46,19.80
2018,05,17,13,47,19.70
2018,05,17,13,48,19.60
2018,05,17,13,49,19.60
2018,05,17,13,50,19.60
2018,05,17,13,51,19.60
2018,05,17,13,52,19.70
2018,05,17,13,53,19.70
2018,05,17,13,54,19.80
2018,05,17,13,55,19.90
2018,05,17,13,56,20.00
2018,05,17,13,57,20.00
2018,05,17,13,58,20.00
2018,05,17,13,59,20.00
2018,05,17,14,00,20.00
2018,05,17,14,01,20.00
2018,05,17,14,02,20.00
2018,05,17,14,03,20.00
2018,05,17,14,04,20.00
2018,05,17,14,05,19.90
2018,05,17,14,06,19.90
2018,05,17,14,07,19.80
2018,05,17,14,08,19.80
2018,05,17,14,09,19.80
2018,05,17,14,10,19.70
2018,05,17,14,11,19.70
2018,05,17,14,12,19.80
2018,05,17,14,13,19.80
2018,05,17,14,14,19.80
2018,05,17,14,15,19.90
2018,05,17,14,16,19.90
2018,05,17,14,17,19.90
2018,05,17,14,18,19.90
2018,05,17,14,19,19.80
2018,05,17,14,20,19.80
2018,05,17,14,21,19.80
2018,05,17,14,22,19.80
2018,05,17,14,23,19.80
2018,05,17,14,24,19.70
2018,05,17,14,25,19.70
2018,05,17,14,26,19.70
2018,05,17,14,27,19.60
2018,05,17,14,28,19.60
2018,05,17,14,29,19.60
2018,05,17,14,30,19.60
2018,05,17,14,31,19.60
2018,05,17,14,32,19.60
2018,05,17,14,33,19.60
2018,05,17,14,34,19.60
2018,05,17,14,35,19.60
2018,05,17,14,36,19.60
2018,05,17,14,37,19.60
2018,05,17,14,38,19.60
2018,05,17,14,39,19.60
2018,05,17,14,40,19.60
2018,05,17,14,41,19.50
2018,05,17,14,42,19.40
2018,05,17,14,43,19.40
2018,05,17,14,44,19.40
2018,05,17,14,45,19.40
2018,05,17,14,46,19.50
2018,05,17,14,47,19.50
2018,05,17,14,48,19.60
2018,05,17,14,49,19.60
2018,05,17,14,50,19.60
2018,05,17,14,51,19.50
2018,05,17,14,52,19.50
2018,05,17,14,53,19.40
2018,05,17,14,54,19.40
2018,05,17,14,55,19.40
2018,05,17,14,56,19.40
2018,05,17,14,57,19.40
2018,05,17,14,58,19.40
2018,05,17,14,59,19.40
2018,05,17,15,00,19.40
2018,05,17,15,01,19.40
2018,05,17,15,02,19.30
2018,05,17,15,03,19.40
2018,05,17,15,04,19.40
2018,05,17,15,05,19.40
2018,05,17,15,06,19.50
2018,05,17,15,07,19.50
2018,05,17,15,08,19.60
2018,05,17,15,09,19.70
2018,05,17,15,10,19.80
2018,05,17,15,11,19.90
2018,05,17,15,12,19.90
2018,05,17,15,13,20.00
2018,05,17,15,14,20.00
2018,05,17,15,15,20.10
2018,05,17,15,16,20.10
2018,05,17,15,17,20.10
2018,05,17,15,18,20.10
2018,05,17,15,19,20.10
2018,05,17,15,20,20.10
2018,05,17,15,21,20.00
2018,05,17,15,22,20.00
2018,05,17,15,23,19.90
2018,05,17,15,24,19.90
2018,05,17,15,25,20.00
2018,05,17,15,26,20.00
2018,05,17,15,27,20.10
2018,05,17,15,28,20.10
2018,05,17,15,29,20.10
2018,05,17,15,30,20.10
2018,05,17,15,31,20.10
2018,05,17,15,32,20.00
2018,05,17,15,33,19.90
2018,05,17,15,34,19.90
2018,05,17,15,35,19.90
2018,05,17,15,36,19.90
2018,05,17,15,37,19.90
2018,05,17,15,38,19.90
2018,05,17,15,39,19.90
2018,05,17,15,40,19.90
2018,05,17,15,41,19.90
2018,05,17,15,42,19.90
2018,05,17,15,43,19.90
2018,05,17,15,44,20.00
2018,05,17,15,45,20.10
2018,05,17,15,46,20.10
2018,05,17,15,47,20.20
2018,05,17,15,48,20.20
2018,05,17,15,49,20.20
2018,05,17,15,50,20.30
2018,05,17,15,51,20.30
2018,05,17,15,52,20.40
2018,05,17,15,53,20.50
2018,05,17,15,54,20.60
2018,05,17,15,55,20.60
2018,05,17,15,56,20.70
2018,05,17,15,57,20.70
2018,05,17,15,58,20.70
2018,05,17,15,59,20.70
2018,05,17,16,00,20.60
2018,05,17,16,01,20.60
2018,05,17,16,02,20.60
2018,05,17,16,03,20.60
2018,05,17,16,04,20.60
2018,05,17,16,05,20.60
2018,05,17,16,06,20.70
2018,05,17,16,07,20.80
2018,05,17,16,08,20.80
2018,05,17,16,09,20.80
2018,05,17,16,10,20.80
2018,05,17,16,11,20.80
2018,05,17,16,12,20.70
2018,05,17,16,13,20.60
2018,05,17,16,14,20.60
2018,05,17,16,15,20.50
2018,05,17,16,16,20.50
2018,05,17,16,17,20.50
2018,05,17,16,18,20.50
2018,05,17,16,19,20.50
2018,05,17,16,20,20.50
2018,05,17,16,21,20.50
2018,05,17,16,22,20.40
2018,05,17,16,23,20.40
2018,05,17,16,24,20.40
2018,05,17,16,25,20.50
2018,05,17,16,26,20.50
2018,05,17,16,27,20.60
2018,05,17,16,28,20.60
2018,05,17,16,29,20.70
2018,05,17,16,30,20.70
2018,05,17,16,31,20.70
2018,05,17,16,32,20.70
2018,05,17,16,33,20.80
2018,05,17,16,34,20.80
2018,05,17,16,35,20.80
2018,05,17,16,36,20.80
2018,05,17,16,37,20.80
2018,05,17,16,38,20.90
2018,05,17,16,39,20.90
2018,05,17,16,40,20.90
2018,05,17,16,41,20.90
2018,05,17,16,42,20.80
2018,05,17,16,43,20.80
2018,05,17,16,44,20.80
2018,05,17,16,45,20.80
2018,05,17,16,46,20.80
2018,05,17,16,47,20.70
2018,05,17,16,48,20.70
2018,05,17,16,49,20.70
2018,05,17,16,50,20.70
2018,05,17,16,51,20.70
2018,05,17,16,52,20.70
2018,05,17,16,53,20.70
2018,05,17,16,54,20.70
2018,05,17,16,55,20.60
2018,05,17,16,56,20.60
2018,05,17,16,57,20.50
2018,05,17,16,58,20.50
2018,05,17,16,59,20.40
2018,05,17,17,00,20.40
2018,05,17,17,01,20.40
2018,05,17,17,02,20.40
2018,05,17,17,03,20.40
2018,05,17,17,04,20.40
2018,05,17,17,05,20.30
2018,05,17,17,06,20.20
2018,05,17,17,07,20.20
2018,05,17,17,08,20.20
2018,05,17,17,09,20.20
2018,05,17,17,10,20.10
2018,05,17,17,11,20.10
2018,05,17,17,12,20.10
2018,05,17,17,13,20.00
2018,05,17,17,14,20.00
2018,05,17,17,15,20.00
2018,05,17,17,16,20.00
2018,05,17,17,17,20.00
2018,05,17,17,18,20.00
2018,05,17,17,19,20.00
2018,05,17,17,20,20.00
2018,05,17,17,21,20.00
2018,05,17,17,22,20.00
2018,05,17,17,23,20.00
2018,05,17,17,24,20.10
2018,05,17,17,25,20.10
2018,05,17,17,26,20.10
2018,05,17,17,27,20.00
2018,05,17,17,28,19.90
2018,05,17,17,29,19.80
2018,05,17,17,30,19.80